sat.trackr.live / text

‹ back to catalog

STARLINK-3571

NORAD 51857 · 2022-022F

PAYLOAD ACTIVE UNKNOWN

§ Identity

Operator
Country
US
Launch date
2022-03-03
Launch site
AFETR
Launch vehicle
Mass (kg)
RCS (m²)

Purposes: comms

External: N2YO · Heavens-Above · Gunter

§ Orbital elements

Epoch: 2026-09-19T11:48:37.492704Z

Period
94.01 min
Inclination
53.1588°
Eccentricity
0.0001242
Mean motion
15.31700717 rev/d
Perigee alt
469.9 km
Apogee alt
471.6 km
Semi-major
6,848.9 km
B*
6.4475e-6
RAAN
215.5431°
Arg perigee
86.7269°
Mean anomaly
273.3875°
Rev number
25,246

§ Raw data

STARLINK-35711 51857U 22022F   26262.49210061 -.00000165  00000+0  64475-5 0  99982 51857  53.1588 215.5431 0001242  86.7269 273.3875 15.31700717252462

JSON: /api/v1/satellites/51857 · /tle

For live sub-satellite position, see the globe view (requires WebGL).

§ Visibility from observer

Set your observer location to see the next 7 days of passes ≥ 10°. The values pass through the URL so the page stays shareable.

No JS? Fill the form by hand. The geolocation button needs JavaScript.